SCP
0 0 0 0 0 0 0 0 0 0 0 0 0 0 0 0 0 0 0 0 0 0 0 0 0 0 0 0 0 0 1 0 0 0 0 0 0 0 0 0 0 0 0 0
0 0 0 0 0 0 0 0 0 0 0 0 0 0 0 0 0 0 0 0 0 0 0 0 0 0 0 0 0 0 0 0 0 0 0 0 0 0 0 0 0 0 0 0
0 0 0 0 0 0 0 0 0 0 0 0 0 0 0 0 0 0 0 0 0 0 0 0 0 0 0 0 0 0 0 0 0 0 0 0 0 0 0 1 1 1 1 0
0 0 0 0 0 0 0 0 0 0 0 0 0 0 0 0 0 0 0 0 0 0 0 0 0 0 0 0 0 0 0 0 0 0 0 0 0 0 0 1 1 1 0 0
0 0 0 0 0 0 0 0 0 0 0 0 0 0 0 0 0 0 0 0 0 0 0 0 0 0 0 0 0 0 0 0 0 0 0 0 0 0 1 1 1 1 0 0
0 0 0 0 0 0 0 0 0 0 0 0 0 0 0 0 0 0 0 0 0 0 0 0 0 0 0 0 0 0 0 0 0 0 0 0 0 0 1 1 1 1 0 1
0 0 0 0 0 0 0 0 0 0 0 0 0 0 0 0 0 0 0 0 0 0 0 0 0 0 0 0 0 0 0 0 0 0 0 0 0 0 1 1 1 1 0 1
0 0 0 0 0 0 0 0 0 0 0 0 0 0 0 0 0 0 0 0 0 0 0 0 0 0 0 0 0 0 0 0 0 0 0 0 0 0 0 0 0 0 0 0
0 0 0 0 0 0 0 0 0 0 0 0 0 0 0 0 0 0 0 0 0 0 0 0 0 0 0 0 0 0 0 0 0 0 0 0 0 0 0 0 0 0 0 0
0 0 0 0 0 0 0 0 0 0 0 0 0 0 0 0 0 0 0 0 0 0 0 0 0 0 0 0 0 0 0 0 0 0 0 0 0 0 0 0 0 0 0 0
0 0 0 0 0 0 0 0 0 0 0 0 0 0 0 0 0 0 0 0 0 0 0 0 0 0 0 0 0 0 0 0 0 0 0 0 0 0 0 0 0 0 0 0
0 0 0 0 0 0 0 0 0 0 0 0 0 0 0 0 0 0 0 0 0 0 0 0 0 0 0 0 0 0 0 0 0 0 0 0 0 0 0 0 0 0 0 0
0 0 0 0 0 0 0 0 0 0 0 0 0 0 0 0 0 0 0 0 0 0 0 0 0 0 0 0 0 0 0 0 0 0 0 0 0 0 0 0 0 0 0 0
0 0 0 0 0 0 0 0 0 0 0 0 0 0 0 0 0 0 0 0 0 0 0 0 0 0 0 0 0 0 0 0 0 0 0 0 0 0 0 0 0 0 0 0
0 0 0 0 0 0 0 0 0 0 0 0 0 0 0 0 0 0 0 0 0 0 0 0 0 0 0 0 0 0 0 0 0 0 0 0 0 0 0 0 0 0 0 0
0 0 0 0 0 0 0 0 0 0 0 0 0 0 0 0 0 0 0 0 0 0 0 0 0 0 0 0 0 0 0 0 0 0 0 0 0 0 0 0 0 0 0 0
0 0 0 0 0 0 0 0 0 0 0 0 0 0 0 0 0 0 0 0 0 0 0 0 0 0 0 0 0 0 0 0 0 0 0 0 0 0 0 0 0 0 0 0
0 0 0 0 0 0 0 0 0 0 0 0 0 0 0 0 0 0 0 0 0 0 0 0 0 0 0 0 0 0 0 0 0 0 0 0 0 0 0 0 0 0 0 0
0 0 0 0 0 0 0 0 0 0 0 0 0 0 0 0 -0 0 0 0 0 0 0 0 0 0 0 0 0 0 0 0 0 0 0 0 0 0 0 0 0 0 0 0
0 0 0 0 0 0 0 0 0 0 0 0 0 0 0 0 0 0 0 0 0 0 0 0 0 0 0 0 0 0 0 0 0 0 0 0 0 0 0 0 0 0 0 0
0 0 0 0 0 0 0 0 0 0 0 0 0 0 0 0 0 0 0 0 0 0 0 0 0 0 0 0 0 0 0 0 0 0 0 0 0 0 0 0 0 0 0 0
0 0 0 0 0 0 0 0 0 0 0 0 0 0 0 0 0 0 0 0 0 0 0 0 0 0 0 0 0 0 0 0 0 0 0 0 0 0 0 0 0 0 0 0
0 0 0 0 0 0 0 0 0 0 0 0 0 0 0 0 0 0 0 0 0 0 0 0 0 0 0 0 0 0 0 0 0 0 0 0 0 0 0 0 0 0 0 0
0 0 0 0 0 0 0 0 0 0 0 0 0 0 0 0 0 0 0 0 0 0 0 0 0 0 0 0 0 0 0 0 0 0 0 0 0 0 0 0 0 0 0 0
0 0 0 0 0 0 0 0 0 0 0 0 0 0 0 -0 0 0 0 0 0 0 0 0 0 0 0 0 0 0 0 0 0 0 0 0 0 0 0 0 0 0 0 0
0 0 0 0 0 0 0 0 0 0 0 0 0 0 0 0 0 0 0 0 0 0 0 0 0 0 0 0 0 0 0 0 0 0 0 0 0 0 0 0 0 0 0 0
0 0 0 0 0 0 0 0 0 0 0 0 0 0 0 0 0 0 0 0 0 0 0 0 0 0 0 0 0 0 0 0 0 0 0 0 0 0 0 0 0 0 0 0
Wind_Speed
5 5 4 5 6 6 8 7 7 7 7 8 5 5 4 3 4 5 5 5 4 4 3 3 4 4 4 4 4 4 4 3 3 3 3 2 2 2 2 2 2 2 2 2
4 5 5 7 8 8 9 8 9 9 11 6 5 4 4 4 4 5 5 5 5 5 4 4 4 4 5 5 5 4 3 3 3 2 2 2 3 2 2 2 2 2 2 2
3 1 3 7 8 9 6 6 6 9 8 4 4 4 4 5 4 4 5 5 6 6 5 4 4 4 4 4 4 3 3 3 3 2 2 2 3 2 2 2 2 2 2 2
2 2 6 5 1 4 5 6 6 5 5 4 5 5 5 3 2 3 5 5 5 5 5 5 4 4 4 4 3 3 3 3 3 2 2 3 2 2 3 2 1 2 2 2
2 3 7 3 1 2 3 6 4 5 5 4 3 4 3 1 2 3 4 4 4 4 5 5 4 4 3 4 3 3 3 3 3 2 2 2 3 3 2 2 1 2 1 1
2 3 5 3 0 1 2 5 2 2 3 2 2 3 3 3 4 4 4 3 4 4 4 4 4 3 3 3 3 4 4 4 3 2 2 2 2 2 2 2 2 2 2 1
4 5 7 2 0 1 2 5 2 1 2 1 2 3 4 4 4 4 4 4 4 4 4 4 4 3 3 3 3 4 4 4 3 3 2 2 2 2 1 1 1 1 1 1
4 5 8 1 3 3 4 2 1 2 1 2 3 3 3 4 4 4 4 4 4 4 4 3 3 3 3 3 4 4 4 4 3 3 3 3 2 2 1 1 1 1 1 1
6 7 2 4 4 3 1 2 2 2 1 1 3 3 4 3 4 4 4 4 4 4 4 4 3 3 3 4 4 4 3 3 3 3 3 2 2 2 2 1 1 1 1 1
4 6 4 4 3 2 2 3 3 2 2 1 3 4 4 4 4 4 4 4 4 3 4 4 4 3 3 4 4 3 3 3 3 3 3 3 2 2 1 2 2 2 1 1
6 5 5 4 3 3 3 2 2 2 2 2 3 3 4 4 4 4 4 3 3 3 3 4 4 4 4 4 3 3 3 3 3 2 2 3 3 2 2 1 1 1 1 1
6 4 3 4 2 2 2 3 3 3 3 3 2 3 3 3 3 3 3 2 2 3 3 3 4 4 4 4 3 3 3 3 2 2 2 2 2 3 4 3 4 4 4 3
4 2 3 3 2 1 2 3 2 2 2 3 3 2 2 3 3 2 2 2 2 3 3 3 3 4 4 3 3 3 3 3 2 2 2 2 2 2 3 4 5 4 5 5
2 1 3 3 3 2 2 2 2 1 2 2 2 2 2 3 3 2 2 2 2 2 3 3 3 3 4 3 3 3 3 3 3 2 2 2 1 1 1 2 3 3 4 5
3 2 3 2 1 1 1 1 1 2 2 2 2 2 2 2 3 3 3 2 2 2 3 3 3 4 3 3 3 3 2 2 2 2 2 1 1 1 1 2 2 2 2 3
3 2 2 2 2 1 1 1 2 3 2 2 2 2 2 2 2 2 2 2 2 2 3 3 3 3 3 3 3 2 2 3 3 2 2 2 1 1 1 1 2 2 2 2
2 2 3 3 3 2 2 2 2 2 2 2 2 2 1 2 2 2 3 2 2 2 2 2 3 3 3 3 2 2 2 2 3 2 2 1 1 1 1 1 1 2 2 3
4 4 3 3 3 3 3 2 2 2 2 2 1 1 1 1 2 2 3 3 3 3 3 2 2 3 3 3 2 2 2 2 2 1 1 1 1 1 1 1 2 2 2 3
3 3 2 2 2 2 2 2 2 1 1 1 1 1 1 1 2 2 2 2 3 3 3 2 4 3 3 3 3 2 2 2 2 2 1 2 2 1 1 1 2 2 2 2
2 1 1 1 1 1 1 1 1 1 1 0 0 1 2 2 2 2 2 2 2 2 2 3 3 2 2 2 3 2 2 2 2 2 1 1 1 2 2 2 2 2 2 2
1 1 1 1 0 1 1 1 1 1 1 0 0 1 2 2 2 1 1 2 2 2 2 3 2 2 2 2 3 2 1 1 2 2 2 1 1 2 2 2 2 2 2 2
1 1 1 1 1 0 1 0 0 0 0 1 1 1 1 2 2 2 1 2 2 3 2 2 2 2 3 3 2 2 1 1 1 1 1 2 2 2 2 2 2 2 2 2
1 1 1 1 1 1 1 0 0 1 1 1 1 1 1 2 1 1 2 2 2 3 2 2 3 3 4 2 1 1 1 2 2 2 2 2 2 2 2 2 2 2 2 2
2 1 1 1 1 1 0 1 1 1 1 1 1 1 1 1 1 1 1 2 3 3 2 2 4 4 3 2 1 1 1 2 2 1 2 2 2 2 2 2 2 2 2 2
2 2 2 2 2 1 1 0 0 0 0 1 1 1 1 1 1 2 2 2 3 3 2 3 3 3 2 1 1 1 2 2 2 1 2 2 2 2 2 2 2 2 2 2
2 2 2 2 2 1 1 1 1 1 1 1 1 1 1 1 1 1 1 2 2 3 2 2 2 2 1 1 1 2 2 2 2 2 2 2 2 2 2 2 2 2 1 1
1 1 1 1 1 1 1 1 1 1 1 1 1 1 1 1 1 1 1 1 1 2 2 1 1 1 1 1 2 2 2 2 2 2 2 2 2 2 2 2 2 2 1 1
Wind_Direction
267 273 253 245 234 213 215 228 240 263 274 279 298 309 310 316 326 326 330 337 334 334 331 334 334 333 328 319 315 311 303 293 286 293 298 302 294 278 273 277 282 289 284 281
271 251 247 258 246 227 230 239 250 269 277 284 306 316 322 324 321 320 330 334 336 332 325 325 325 323 323 318 314 316 315 298 295 301 303 301 299 290 277 278 280 284 286 277
264 282 312 266 230 206 210 216 214 240 257 308 316 314 310 309 311 322 327 325 326 326 321 316 316 315 311 308 313 316 312 309 313 310 297 294 295 294 278 266 268 270 276 282
276 322 253 242 183 181 211 244 230 248 275 294 295 303 299 294 316 318 315 314 319 326 329 323 315 311 305 308 317 317 312 313 323 320 314 304 293 284 278 274 270 278 284 287
252 262 270 261 233 170 200 270 222 235 273 298 328 324 299 340 340 314 313 313 317 324 321 319 314 312 321 323 325 323 318 319 320 318 310 305 288 283 280 284 287 281 288 292
237 254 256 258 171 123 123 275 256 222 263 293 348 313 285 343 344 331 329 331 331 330 326 322 320 325 334 324 329 324 322 319 317 305 293 296 295 288 294 289 286 287 297 288
229 245 262 261 166 112 180 264 298 235 242 245 252 252 280 316 323 327 328 327 330 326 326 328 331 337 331 329 328 321 319 320 320 322 320 316 310 302 296 298 305 309 309 308
197 225 253 165 133 192 238 296 291 274 256 265 279 294 310 316 318 324 326 327 329 328 328 332 338 343 336 329 324 326 325 324 326 333 333 333 339 338 327 312 302 308 326 334
202 219 239 173 202 228 268 285 286 275 285 276 283 292 303 307 311 313 316 319 321 323 327 332 337 339 326 320 324 327 325 324 331 339 337 340 350 347 348 348 326 314 324 327
261 263 270 246 239 261 275 271 286 291 294 278 275 286 297 301 308 313 315 316 321 328 329 330 336 337 319 317 329 332 327 328 334 341 343 347 348 348 352 349 346 345 340 333
255 274 295 269 252 272 285 288 295 305 293 277 272 284 287 292 297 302 306 313 321 324 322 323 329 333 334 333 341 336 328 332 339 347 346 349 350 348 341 338 352 348 335 338
234 239 231 265 288 320 299 293 290 296 304 304 282 284 291 290 293 296 300 312 322 323 321 321 327 329 333 334 342 339 331 333 335 338 339 342 345 352 0 0 4 2 357 359
238 284 275 279 296 327 291 289 292 286 287 305 309 300 298 298 303 310 314 318 315 315 316 320 327 329 331 334 341 344 335 333 336 340 342 349 353 355 354 2 7 6 4 2
237 287 283 282 285 300 302 310 321 323 315 306 307 315 319 317 319 326 318 314 320 320 318 321 329 331 335 344 349 348 342 340 342 341 338 343 346 345 353 358 359 4 3 4
251 250 249 274 313 331 331 328 327 317 322 322 322 318 320 315 311 314 319 328 334 332 330 338 339 334 344 352 354 350 343 342 346 345 343 344 347 351 354 360 4 2 7 4
263 261 247 256 262 282 304 299 288 293 301 304 312 312 310 309 311 318 328 337 342 332 332 337 331 333 350 353 352 350 351 351 351 349 349 351 356 355 358 1 359 359 352 345
201 236 243 260 263 266 265 265 263 272 288 295 295 307 327 339 340 337 336 338 340 329 325 325 327 342 353 349 345 342 343 347 350 349 350 349 354 349 346 349 344 338 331 340
211 223 221 225 232 250 267 275 276 279 279 283 300 316 319 317 310 313 323 338 349 346 342 348 350 353 353 348 347 345 344 348 347 339 339 349 353 345 340 334 327 327 333 344
206 214 223 232 233 228 245 263 272 279 285 281 277 282 291 299 308 316 331 347 345 334 333 351 350 358 347 343 346 347 346 346 345 337 336 345 345 334 333 332 329 330 336 342
205 197 199 229 236 217 237 260 279 304 308 312 322 323 321 316 326 333 337 326 306 302 320 338 340 338 336 338 342 343 345 344 338 335 339 343 339 336 336 334 332 335 338 338
189 175 175 194 244 254 235 219 197 260 301 303 233 261 284 303 318 324 326 318 322 345 345 340 342 331 330 339 343 346 346 342 339 335 335 334 333 333 334 334 333 333 333 334
182 170 186 186 168 290 302 259 186 205 284 318 315 303 304 308 316 319 297 280 305 335 347 339 333 336 344 348 346 344 342 337 330 329 328 327 329 330 328 326 323 325 327 324
175 176 181 187 185 207 312 313 221 199 214 240 258 270 272 280 295 303 310 320 336 335 340 328 330 339 348 356 346 341 337 333 328 326 321 319 316 310 307 308 308 312 313 314
162 163 177 171 138 130 275 292 292 265 241 255 259 262 260 291 305 289 288 318 331 331 328 325 338 342 352 352 337 332 327 322 317 315 314 311 307 303 302 301 301 304 303 302
163 163 165 163 170 195 213 234 5 334 333 315 300 287 272 249 260 294 318 315 317 327 325 325 334 340 346 332 326 323 318 312 312 313 311 306 302 299 300 302 302 300 298 298
179 185 194 202 200 194 188 185 214 239 251 294 305 297 303 318 305 299 306 305 306 315 318 315 315 326 322 314 308 306 308 313 316 315 308 304 301 300 300 302 304 302 305 310
166 176 176 189 203 192 192 196 206 229 232 239 281 288 297 306 307 305 305 306 307 309 309 309 309 307 305 303 304 306 306 306 308 309 307 305 303 297 295 299 305 310 312 309